Lid_Strength_Index
12 13 13 13 14 13 14 15 16 19 17 15 14 14 13 13 12 12 13 12 9 8 7 7 8 8 8 8 7 6 7 6 6 6 6 6 6 6
12 13 13 14 14 14 14 14 15 16 17 14 15 15 13 13 12 13 14 12 10 9 8 8 9 9 9 9 8 8 7 7 7 7 7 7 7 7
13 13 13 14 14 14 14 14 14 14 16 16 16 15 15 14 14 14 14 14 14 10 9 8 10 9 9 9 9 9 9 9 8 9 9 8 8 8
13 13 13 13 14 14 14 15 14 14 15 17 17 17 16 15 15 15 15 14 16 13 11 10 10 10 10 10 10 9 10 10 10 10 10 9 9 9
12 13 13 13 14 15 15 15 15 15 15 17 19 17 17 17 16 16 16 17 16 14 12 11 10 10 10 10 10 11 11 11 11 10 10 10 10 10
11 12 13 14 14 15 15 15 16 16 16 17 18 18 18 17 17 18 18 18 18 16 14 13 11 11 11 11 12 13 12 12 11 11 11 11 11 10
11 12 12 13 13 13 14 15 16 17 17 17 18 18 18 18 18 18 19 19 18 17 17 16 16 16 16 15 15 13 12 12 11 11 11 11 11 11
12 12 12 12 12 12 12 13 14 16 17 17 18 17 17 17 18 18 18 18 18 18 18 17 17 17 17 18 14 13 12 12 12 12 12 12 12 12
11 12 13 13 13 13 12 12 12 12 13 15 16 17 16 17 17 18 18 19 19 18 18 18 18 18 18 17 14 13 13 13 13 13 13 12 12 12
11 12 12 13 13 13 14 14 14 13 14 15 15 15 15 15 16 16 17 17 17 18 18 20 19 19 17 18 15 14 14 14 14 13 13 13 13 12
11 11 12 13 12 11 13 14 15 15 13 13 13 13 13 13 14 16 18 18 18 18 19 21 20 20 18 19 18 15 15 15 14 14 14 13 13 13
11 11 11 12 11 11 13 14 15 16 15 15 15 14 13 13 13 15 16 18 19 21 19 21 21 21 21 19 19 19 19 16 15 15 14 14 13 15
12 12 12 11 11 11 12 14 14 15 14 16 17 17 17 18 18 17 17 17 20 21 18 21 23 22 24 23 20 19 19 18 18 17 15 14 13 14
12 12 12 12 11 11 12 12 13 13 16 16 17 18 18 19 19 18 18 18 18 18 17 20 24 24 27 27 24 20 19 18 19 18 17 16 15 14
11 12 12 11 11 11 12 12 13 15 16 17 17 18 18 18 19 19 19 18 19 18 18 19 22 26 26 27 24 24 20 20 19 18 18 18 18 18
11 12 12 12 11 12 13 13 15 15 15 16 17 18 19 19 19 19 20 20 22 22 19 19 22 24 26 25 26 23 21 25 19 19 19 18 18 17
11 12 13 13 13 14 14 16 16 15 16 18 18 18 19 19 19 19 20 21 24 24 24 22 21 23 23 25 28 25 24 23 20 19 20 20 18 17
12 13 13 13 14 15 15 16 16 16 17 17 18 18 19 19 20 20 22 23 24 25 26 26 26 25 25 24 21 27 27 26 20 20 20 20 19 17
13 13 14 14 14 15 15 15 16 17 17 17 18 19 19 20 20 22 22 22 25 27 28 29 29 29 29 30 26 18 26 24 21 21 19 20 20 18
13 14 14 14 14 15 15 16 17 17 17 17 18 19 19 19 20 21 22 25 26 29 29 31 30 29 28 28 25 26 18 21 25 21 21 19 17 14
13 14 13 14 14 15 15 16 16 17 17 17 18 19 19 20 22 22 23 21 23 30 29 29 28 20 31 31 28 27 26 18 17 20 20 20 21 20
13 13 14 14 14 15 15 15 16 16 18 18 19 19 20 21 21 22 22 23 27 28 29 32 30 30 31 30 31 30 24 22 18 16 15 16 21 23
13 14 14 14 14 15 15 15 16 17 18 18 19 20 21 22 21 22 23 24 26 30 31 29 30 32 32 32 26 30 30 27 25 21 21 15 14 14